Wind_Speed
29 29 28 29 28 28 29 30 32 30 31 30 32 32 33 34 36 37 40 42 43 44 47 50 53 54 55 56 56 55 55 54 54 53 52 51 50 50 51 50 49 48 48 48
31 30 30 30 28 29 29 29 30 30 29 30 32 33 34 35 37 38 41 43 44 45 46 48 51 54 55 55 55 56 56 55 54 53 53 52 52 51 51 50 49 49 49 49
32 30 30 28 27 28 28 28 29 28 26 28 31 33 34 36 38 39 41 43 45 45 47 48 50 53 55 55 54 54 54 55 55 54 54 53 53 52 51 50 49 50 50 49
32 31 30 27 27 28 29 28 28 28 27 28 29 31 33 36 39 39 41 43 46 47 48 48 50 52 55 56 55 55 55 55 55 55 54 53 53 52 51 50 49 49 48 48
33 32 30 27 26 27 28 28 28 29 29 29 29 30 31 34 38 40 41 43 45 47 49 48 49 51 53 54 55 55 55 54 54 55 55 53 52 51 51 50 49 49 48 47
32 33 31 27 27 28 29 27 27 29 30 30 30 30 31 33 35 39 41 43 45 46 48 49 49 50 51 53 55 55 55 55 54 55 55 55 53 52 51 50 49 48 48 47
32 33 32 28 28 28 28 27 27 28 28 29 30 30 30 32 34 36 38 41 44 45 47 48 49 50 50 51 53 55 54 54 54 54 54 54 53 53 52 51 50 48 47 47
34 34 32 30 30 29 28 28 27 28 29 29 29 29 30 31 32 35 37 39 41 43 46 48 49 50 50 51 52 54 54 53 54 54 53 53 52 52 51 51 51 49 48 47
35 33 31 31 31 30 30 29 29 29 29 30 29 30 31 31 32 33 35 39 41 42 44 47 49 50 51 51 52 53 53 53 53 54 54 53 52 51 50 49 49 49 47 44
34 31 31 31 31 31 31 31 30 30 30 30 30 30 31 31 32 33 34 37 40 42 43 46 48 49 51 51 52 52 52 53 53 53 53 52 51 50 50 48 48 48 47 46
33 31 31 31 31 31 30 29 29 30 30 30 30 31 32 32 33 34 35 36 38 40 42 44 46 49 49 49 51 52 52 52 52 52 52 51 50 49 49 48 46 46 47 46
32 30 31 30 30 30 29 28 29 29 29 29 29 30 31 32 32 34 35 36 37 39 40 41 43 46 48 47 48 49 50 51 51 50 50 50 49 48 47 47 45 44 44 46
31 29 29 28 28 28 28 28 28 28 28 28 29 30 30 30 30 31 33 35 37 38 39 40 41 44 45 46 46 47 48 48 49 49 49 49 48 47 45 45 44 44 43 44
30 28 27 27 27 28 28 28 28 28 28 27 28 29 30 29 29 30 31 32 35 38 39 39 40 42 44 45 46 47 48 48 48 49 48 47 47 46 45 44 44 44 43 43
28 27 26 26 26 27 28 28 28 27 27 27 27 28 28 29 28 28 29 30 33 35 38 39 40 41 43 43 44 45 47 47 47 48 48 46 46 45 45 44 44 44 44 43
27 26 25 25 26 26 26 26 26 26 26 26 26 26 26 27 27 27 27 29 31 32 34 37 38 40 42 42 42 43 45 46 47 48 47 46 45 45 44 44 44 43 43 43
26 26 25 25 25 25 25 25 25 24 24 24 24 25 25 25 26 26 26 28 30 31 33 35 35 38 40 40 42 42 43 44 45 47 46 46 45 44 44 44 43 43 43 43
25 25 24 24 24 24 24 24 24 23 23 23 24 24 24 24 24 26 26 26 28 30 31 33 34 35 37 38 40 41 42 43 43 44 44 45 45 44 43 42 42 42 42 42
24 24 24 23 23 23 23 23 23 23 22 22 23 23 24 24 24 26 27 27 26 28 30 32 34 35 35 36 37 38 40 42 42 42 43 43 42 41 41 41 41 41 40 39
23 23 23 22 22 21 21 22 22 22 22 22 22 23 23 24 25 26 26 27 27 28 30 32 34 34 35 35 36 36 37 39 40 41 41 41 40 40 40 40 39 38 37 37
23 23 22 22 21 21 21 21 22 22 22 22 22 22 22 23 24 25 25 25 26 28 29 30 32 34 34 34 34 35 36 37 38 39 39 38 38 38 38 38 37 35 35 34
23 22 22 21 21 21 22 21 21 21 21 21 20 20 20 21 22 23 23 24 25 27 28 28 30 32 33 33 33 33 34 35 36 37 37 36 36 35 35 35 35 34 33 33
22 22 21 21 21 21 20 20 21 20 19 19 19 18 19 19 20 21 22 23 25 26 27 28 28 29 30 31 32 32 33 34 35 35 36 36 35 34 34 34 34 33 33 32
21 21 21 21 21 20 20 20 20 19 19 19 18 18 18 18 18 19 19 20 22 24 26 26 28 29 29 30 31 32 32 33 33 34 35 35 34 33 33 33 32 32 32 31
21 21 20 20 20 20 19 19 18 18 18 17 17 17 17 17 17 17 18 20 21 22 24 25 26 26 28 29 30 31 31 32 33 33 33 33 32 32 32 31 30 30 30 30
20 19 19 19 20 19 18 17 17 17 17 17 17 17 16 16 17 17 18 19 20 21 23 24 25 25 26 28 29 30 30 30 31 32 32 32 31 30 30 30 29 28 28 29
19 19 19 19 19 18 18 17 16 16 15 15 15 15 15 15 16 17 17 18 19 20 21 22 23 25 26 27 28 30 31 31 32 32 32 31 31 29 28 28 28 27 27 27
Wind_Direction
295 293 289 285 282 276 272 268 267 263 256 247 246 244 240 236 233 230 228 225 224 225 225 224 224 224 223 224 224 225 224 225 225 226 227 228 230 232 234 236 238 239 242 244
295 291 288 286 282 276 273 271 268 265 257 249 246 243 240 236 234 232 229 227 226 226 225 225 224 224 224 225 225 224 224 225 226 227 228 230 231 232 235 237 239 241 242 245
296 292 288 286 283 277 273 271 268 264 257 249 245 243 242 238 235 233 231 230 228 227 226 227 227 226 225 225 226 226 224 225 226 227 229 230 232 234 236 238 240 242 244 245
295 292 289 290 283 278 275 271 267 262 256 252 248 245 245 243 238 235 233 231 229 229 228 227 227 228 228 228 228 227 226 227 227 227 228 230 232 234 237 239 241 243 244 246
292 291 290 289 283 279 276 270 264 260 257 254 251 248 247 245 241 237 235 234 231 229 228 228 228 227 228 228 229 227 227 227 228 228 229 230 232 234 237 239 241 243 245 246
291 290 291 292 285 279 276 270 262 260 257 254 252 250 248 246 244 239 236 234 232 229 228 228 227 227 227 227 227 227 228 228 229 230 229 230 232 234 237 239 241 244 245 246
290 288 289 290 286 281 276 272 265 261 258 256 254 252 249 247 245 242 237 235 232 230 227 227 227 227 226 226 226 226 227 228 229 230 230 231 232 234 236 238 240 242 244 246
288 287 288 286 283 281 277 272 268 264 260 257 255 252 251 248 246 243 239 236 233 230 228 227 227 227 226 226 226 226 226 227 229 230 230 231 232 234 235 237 239 241 243 246
286 287 285 283 282 279 275 272 268 265 262 259 257 254 252 250 247 243 240 238 234 231 229 228 227 227 227 227 227 226 227 227 229 230 230 231 232 233 235 236 239 240 242 244
285 285 282 281 282 278 275 272 268 264 262 260 257 255 252 250 247 244 241 238 235 232 230 229 228 228 228 228 228 227 227 228 229 230 230 231 233 234 235 238 240 241 242 243
284 284 281 281 280 279 276 272 267 264 262 261 258 255 252 250 247 245 243 241 237 235 232 230 228 228 227 227 227 226 226 226 227 229 229 231 233 235 236 239 240 242 243 244
284 283 282 282 279 278 275 270 267 266 264 261 259 256 253 249 246 244 243 242 238 235 233 231 229 228 227 226 225 225 226 226 226 227 228 230 231 233 235 237 239 241 243 244
282 282 283 282 280 278 276 271 269 268 267 264 260 257 254 250 247 245 244 243 239 235 232 230 229 227 227 226 225 224 225 226 226 226 228 229 230 232 233 235 237 239 241 244
281 282 283 282 280 277 275 272 270 270 268 265 263 259 256 253 250 248 246 243 239 235 232 230 229 227 226 226 225 224 224 225 225 226 227 227 229 232 234 236 236 239 241 243
281 282 283 281 278 276 274 273 271 270 268 266 264 261 258 255 253 250 245 241 237 234 232 230 228 228 226 225 225 224 223 223 224 225 226 227 229 231 233 234 235 237 240 242
281 281 281 279 277 276 274 273 271 269 266 264 262 259 257 254 251 248 244 240 236 233 230 229 227 227 226 226 226 224 223 223 224 224 224 226 227 230 232 233 235 237 238 240
279 278 278 278 277 275 273 272 271 270 267 262 260 257 256 254 251 247 245 242 238 233 230 228 226 227 226 225 225 225 223 222 223 223 223 225 227 229 231 233 234 234 236 237
279 278 278 278 278 275 273 272 270 269 268 265 262 259 256 254 250 247 246 245 240 235 230 227 225 225 225 225 224 223 223 222 223 224 225 226 226 228 229 230 231 233 234 236
282 281 280 281 279 276 273 271 270 269 268 266 264 260 256 252 250 248 247 246 242 235 229 227 225 225 224 224 224 223 222 221 222 224 224 224 225 226 227 228 229 230 232 233
284 283 281 279 278 276 273 271 271 271 269 267 264 261 259 254 252 250 248 245 241 235 228 225 225 224 223 223 223 223 221 221 221 222 222 223 224 225 226 227 228 229 230 231
283 281 279 278 275 274 274 273 272 270 268 267 265 262 259 256 251 248 247 243 238 233 227 225 224 222 222 222 222 221 220 218 219 219 219 220 222 222 223 225 226 227 229 230
281 280 279 278 275 275 274 273 273 272 269 268 265 260 257 254 249 246 245 239 234 230 226 224 223 222 220 219 218 217 216 215 215 216 216 216 218 219 219 220 223 225 226 228
280 279 278 277 276 276 275 274 273 272 271 268 264 261 256 251 247 245 241 234 230 226 223 221 220 219 218 216 214 213 212 212 212 213 214 214 214 215 217 220 221 223 224 226
280 280 278 277 276 276 275 273 272 272 271 268 263 257 252 247 242 239 234 227 223 222 221 219 217 216 215 214 212 210 210 211 211 211 211 211 211 214 217 219 220 221 222 224
282 280 277 275 275 276 275 273 272 271 269 266 260 252 246 241 235 230 226 222 219 216 215 214 213 214 215 212 211 210 209 209 210 208 209 210 211 212 214 216 217 219 221 223
283 282 278 276 274 274 273 272 271 268 265 260 253 246 242 234 228 224 222 219 216 213 213 214 214 212 211 210 208 207 206 207 207 206 206 207 209 210 213 215 218 220 221 222
282 281 279 278 275 272 271 270 266 262 259 253 246 240 232 226 221 218 218 217 216 214 212 212 211 209 208 207 204 202 203 204 204 204 205 208 210 210 211 213 215 216 216 217
Height
5531 5528 5525 5523 5523 5521 5518 5518 5517 5519 5520 5524 5525 5527 5529 5532 5535 5539 5544 5548 5554 5560 5566 5572 5579 5586 5594 5601 5610 5617 5624 5631 5639 5646 5652 5658 5664 5670 5675 5680 5685 5689 5693 5697
5523 5521 5517 5515 5515 5512 5510 5510 5509 5509 5511 5515 5515 5517 5520 5523 5526 5530 5535 5539 5545 5550 5556 5562 5569 5576 5583 5591 5599 5606 5613 5621 5628 5635 5641 5648 5654 5659 5664 5670 5675 5679 5683 5687
5515 5512 5509 5508 5508 5504 5503 5502 5501 5500 5504 5504 5506 5508 5511 5513 5517 5521 5525 5530 5535 5540 5546 5552 5558 5565 5572 5580 5588 5595 5603 5610 5617 5624 5631 5637 5643 5649 5654 5660 5664 5669 5673 5677
5505 5504 5500 5503 5498 5496 5494 5493 5492 5492 5494 5495 5497 5499 5501 5504 5508 5512 5516 5520 5525 5530 5536 5542 5548 5554 5561 5569 5576 5584 5592 5599 5606 5613 5620 5626 5632 5639 5644 5649 5654 5659 5663 5667
5496 5493 5491 5493 5490 5487 5485 5485 5485 5484 5485 5487 5488 5490 5493 5495 5497 5501 5505 5509 5514 5519 5525 5531 5537 5543 5550 5558 5565 5573 5581 5587 5595 5602 5609 5615 5622 5628 5633 5638 5643 5648 5652 5656
5487 5483 5482 5485 5481 5477 5477 5477 5477 5475 5476 5477 5479 5481 5484 5485 5487 5490 5494 5498 5503 5508 5514 5520 5526 5532 5539 5547 5554 5562 5569 5576 5583 5590 5597 5604 5611 5617 5622 5628 5633 5637 5641 5646
5478 5474 5473 5475 5471 5469 5469 5469 5467 5467 5467 5468 5469 5472 5474 5475 5477 5479 5483 5487 5492 5497 5503 5509 5515 5521 5528 5535 5543 5550 5557 5565 5571 5579 5586 5593 5599 5606 5611 5617 5622 5627 5631 5635
5469 5466 5468 5465 5462 5461 5460 5458 5458 5457 5458 5459 5460 5461 5463 5465 5467 5469 5472 5476 5481 5486 5492 5498 5504 5511 5517 5524 5531 5539 5546 5553 5561 5567 5574 5581 5588 5594 5600 5606 5610 5615 5620 5624
5461 5460 5458 5454 5452 5451 5450 5449 5448 5448 5448 5449 5450 5451 5453 5455 5457 5459 5462 5466 5470 5474 5480 5487 5493 5499 5506 5513 5520 5527 5534 5542 5549 5555 5563 5570 5576 5583 5589 5594 5599 5604 5609 5614
5450 5450 5447 5444 5442 5440 5439 5439 5439 5439 5439 5439 5440 5441 5443 5445 5447 5449 5452 5455 5459 5464 5469 5475 5482 5488 5495 5501 5508 5516 5523 5530 5537 5544 5551 5558 5565 5571 5578 5583 5588 5593 5599 5603
5439 5439 5436 5435 5432 5431 5430 5429 5428 5429 5429 5429 5430 5431 5433 5434 5436 5439 5441 5445 5448 5453 5458 5464 5470 5477 5483 5490 5497 5504 5511 5518 5525 5532 5540 5547 5554 5561 5567 5573 5578 5584 5588 5593
5430 5429 5426 5425 5423 5421 5420 5419 5419 5419 5419 5419 5420 5420 5422 5424 5426 5428 5431 5434 5437 5442 5447 5453 5459 5465 5472 5479 5486 5493 5500 5507 5514 5521 5529 5536 5543 5550 5555 5562 5567 5572 5577 5582
5420 5419 5417 5415 5413 5412 5410 5410 5409 5409 5409 5409 5410 5410 5411 5413 5415 5418 5420 5423 5427 5431 5437 5442 5448 5454 5461 5468 5475 5482 5489 5496 5503 5510 5517 5525 5532 5539 5545 5551 5556 5561 5566 5570
5410 5409 5408 5406 5405 5403 5401 5401 5400 5400 5400 5400 5400 5400 5402 5404 5406 5408 5410 5413 5416 5421 5426 5431 5437 5444 5450 5456 5463 5471 5478 5485 5492 5499 5506 5513 5520 5527 5533 5539 5545 5550 5554 5559
5401 5400 5399 5398 5396 5394 5393 5392 5392 5392 5391 5391 5391 5391 5393 5394 5396 5398 5401 5403 5407 5411 5416 5421 5427 5433 5439 5445 5452 5459 5466 5474 5481 5488 5495 5502 5509 5516 5522 5528 5534 5539 5544 5548
5393 5391 5390 5388 5387 5386 5385 5384 5383 5383 5382 5382 5382 5383 5384 5385 5387 5389 5391 5394 5397 5401 5406 5411 5416 5422 5428 5435 5441 5448 5455 5462 5470 5477 5485 5492 5498 5505 5511 5517 5522 5528 5533 5538
5383 5382 5381 5380 5379 5377 5376 5376 5375 5375 5374 5374 5374 5375 5376 5377 5379 5381 5383 5385 5388 5392 5396 5401 5406 5412 5418 5424 5430 5437 5445 5452 5459 5466 5473 5481 5488 5494 5500 5506 5511 5517 5522 5526
5375 5373 5372 5371 5370 5369 5368 5367 5367 5366 5366 5366 5366 5367 5368 5369 5370 5372 5374 5377 5380 5383 5387 5392 5397 5402 5408 5414 5420 5427 5434 5441 5448 5455 5463 5470 5477 5483 5489 5495 5500 5505 5511 5515
5366 5365 5364 5363 5361 5360 5360 5359 5359 5358 5358 5358 5358 5358 5359 5360 5362 5363 5366 5368 5371 5374 5378 5382 5388 5393 5399 5405 5411 5417 5424 5431 5438 5445 5452 5459 5465 5472 5478 5484 5489 5495 5500 5505
5358 5356 5355 5354 5353 5352 5352 5351 5350 5350 5350 5349 5350 5350 5351 5352 5353 5355 5357 5359 5362 5365 5369 5374 5379 5384 5390 5396 5402 5408 5414 5421 5428 5435 5442 5448 5455 5462 5468 5474 5479 5485 5490 5495
5349 5348 5347 5346 5345 5344 5343 5343 5342 5342 5341 5341 5341 5342 5342 5343 5344 5346 5348 5351 5354 5357 5361 5365 5371 5376 5381 5387 5393 5399 5405 5412 5419 5426 5433 5439 5446 5452 5458 5465 5470 5476 5481 5486
5341 5340 5339 5338 5337 5336 5335 5334 5334 5333 5333 5333 5333 5333 5334 5335 5336 5338 5340 5343 5345 5349 5353 5358 5363 5368 5373 5379 5385 5391 5397 5404 5411 5417 5424 5431 5437 5444 5450 5456 5462 5468 5473 5479
5333 5332 5331 5330 5329 5328 5327 5326 5326 5325 5325 5325 5325 5325 5326 5327 5328 5330 5333 5335 5338 5342 5347 5351 5356 5361 5366 5371 5377 5384 5390 5397 5403 5410 5416 5423 5430 5436 5443 5449 5455 5460 5466 5471
5325 5324 5323 5322 5321 5320 5320 5319 5318 5318 5317 5317 5317 5318 5318 5320 5321 5323 5325 5328 5332 5336 5340 5345 5349 5354 5359 5364 5371 5377 5383 5390 5396 5402 5409 5416 5423 5429 5436 5442 5447 5453 5458 5463
5317 5316 5315 5314 5313 5312 5312 5311 5311 5311 5310 5310 5310 5311 5312 5313 5315 5317 5320 5323 5326 5330 5334 5339 5343 5348 5352 5358 5364 5370 5377 5383 5390 5396 5403 5410 5416 5423 5429 5435 5440 5446 5451 5456
5309 5308 5307 5306 5306 5305 5305 5304 5304 5303 5303 5303 5303 5304 5305 5307 5309 5312 5315 5318 5321 5325 5329 5333 5338 5342 5347 5352 5358 5364 5371 5377 5384 5391 5398 5404 5411 5417 5423 5429 5434 5439 5444 5449
5302 5301 5300 5299 5299 5298 5298 5297 5297 5297 5296 5297 5297 5299 5300 5303 5305 5308 5310 5314 5317 5321 5324 5328 5333 5337 5342 5348 5353 5359 5366 5373 5379 5386 5393 5399 5406 5412 5418 5423 5428 5433 5438 5443